Time,TemperatureF,DewpointF,PressureIn,WindDirection,WindDirectionDegrees,WindSpeedMPH,WindSpeedGustMPH,Humidity,HourlyPrecipIn,Conditions,Clouds,dailyrainin,SoftwareType,DateUTC
2013-02-07 00:02:00,52.7,44.7,28.46,SW,225,0.0,0.0,74,0.00,,,0.00,open2300-1.11,2013-02-06 22:02:00,
2013-02-07 00:12:00,52.7,44.7,28.47,SW,225,0.0,0.0,74,0.00,,,0.00,open2300-1.11,2013-02-06 22:12:00,
2013-02-07 00:22:00,52.9,44.8,28.46,SW,225,0.0,0.0,74,0.00,,,0.00,open2300-1.11,2013-02-06 22:22:00,
2013-02-07 00:28:00,52.9,44.8,28.46,SW,225,0.0,0.0,74,0.00,,,0.00,open2300-1.11,2013-02-06 22:28:00,
2013-02-07 00:37:00,52.9,44.8,28.46,SW,225,0.0,0.0,74,0.00,,,0.00,open2300-1.11,2013-02-06 22:37:00,
2013-02-07 00:42:00,52.9,44.8,28.46,SW,225,0.0,0.0,74,0.00,,,0.00,open2300-1.11,2013-02-06 22:42:00,
2013-02-07 00:47:00,52.9,44.8,28.46,SW,225,0.0,0.0,74,0.00,,,0.00,open2300-1.11,2013-02-06 22:47:00,
2013-02-07 00:52:00,52.9,44.8,28.46,SW,225,0.0,0.0,74,0.00,,,0.00,open2300-1.11,2013-02-06 22:52:00,
2013-02-07 00:57:00,52.9,44.8,28.46,SW,225,0.0,0.0,74,0.00,,,0.00,open2300-1.11,2013-02-06 22:57:00,
2013-02-07 01:07:00,52.7,44.7,28.46,SW,225,0.0,0.0,74,0.00,,,0.00,open2300-1.11,2013-02-06 23:07:00,
2013-02-07 01:12:00,52.7,44.7,28.46,SW,225,0.0,0.0,74,0.00,,,0.00,open2300-1.11,2013-02-06 23:12:00,
2013-02-07 01:17:00,52.7,44.7,28.45,SW,225,0.0,0.0,74,0.00,,,0.00,open2300-1.11,2013-02-06 23:17:00,
2013-02-07 01:22:00,52.7,45.0,28.45,SW,225,0.0,0.0,75,0.00,,,0.00,open2300-1.11,2013-02-06 23:22:00,
2013-02-07 01:28:00,52.7,45.0,28.44,SW,225,0.0,2.0,75,0.00,,,0.00,open2300-1.11,2013-02-06 23:28:00,
2013-02-07 01:37:00,52.7,45.0,28.45,SW,225,0.0,0.0,75,0.00,,,0.00,open2300-1.11,2013-02-06 23:37:00,
2013-02-07 01:47:00,52.7,45.0,28.45,South,180,0.0,0.0,75,0.00,,,0.00,open2300-1.11,2013-02-06 23:47:00,
2013-02-07 01:52:00,52.7,45.0,28.44,SW,225,0.0,0.0,75,0.00,,,0.00,open2300-1.11,2013-02-06 23:52:00,
2013-02-07 01:57:00,52.9,45.2,28.44,SW,225,0.0,0.0,75,0.00,,,0.00,open2300-1.11,2013-02-06 23:57:00,
2013-02-07 02:07:00,52.9,44.8,28.44,SSW,202,0.0,0.0,74,0.00,,,0.00,open2300-1.11,2013-02-07 00:07:00,
2013-02-07 02:12:00,52.9,44.5,28.44,SW,225,0.0,0.0,73,0.00,,,0.00,open2300-1.11,2013-02-07 00:12:00,
2013-02-07 02:17:00,52.9,44.5,28.44,SW,225,0.0,0.0,73,0.00,,,0.00,open2300-1.11,2013-02-07 00:17:00,
2013-02-07 02:22:00,52.9,44.5,28.44,WSW,247,0.0,0.0,73,0.00,,,0.00,open2300-1.11,2013-02-07 00:22:00,
2013-02-07 02:28:00,52.9,44.1,28.44,SW,225,1.1,1.1,72,0.00,,,0.00,open2300-1.11,2013-02-07 00:28:00,
2013-02-07 02:37:00,53.2,43.7,28.43,SW,225,0.0,0.4,70,0.00,,,0.00,open2300-1.11,2013-02-07 00:37:00,
2013-02-07 02:42:00,53.2,43.7,28.44,SW,225,3.8,3.8,70,0.00,,,0.00,open2300-1.11,2013-02-07 00:42:00,
2013-02-07 02:47:00,53.4,43.9,28.44,SW,225,0.0,3.8,70,0.00,,,0.00,open2300-1.11,2013-02-07 00:47:00,
2013-02-07 02:57:00,53.2,43.7,28.43,WSW,247,0.0,0.0,70,0.00,,,0.00,open2300-1.11,2013-02-07 00:57:00,
2013-02-07 03:07:00,53.2,44.1,28.42,SW,225,0.0,0.0,71,0.00,,,0.00,open2300-1.11,2013-02-07 01:07:00,
2013-02-07 03:12:00,53.2,44.1,28.42,SW,225,2.5,2.5,71,0.00,,,0.00,open2300-1.11,2013-02-07 01:12:00,
2013-02-07 03:17:00,53.2,44.1,28.42,SSW,202,0.0,2.5,71,0.00,,,0.00,open2300-1.11,2013-02-07 01:17:00,
2013-02-07 03:22:00,53.2,44.4,28.43,SW,225,0.0,0.0,72,0.00,,,0.00,open2300-1.11,2013-02-07 01:22:00,
2013-02-07 03:28:00,53.2,44.4,28.43,SW,225,0.0,0.0,72,0.00,,,0.00,open2300-1.11,2013-02-07 01:28:00,
2013-02-07 03:37:00,52.9,44.5,28.43,SW,225,0.0,0.0,73,0.00,,,0.00,open2300-1.11,2013-02-07 01:37:00,
2013-02-07 03:42:00,52.9,44.5,28.44,SW,225,0.0,0.0,73,0.00,,,0.00,open2300-1.11,2013-02-07 01:42:00,
2013-02-07 03:47:00,52.9,44.5,28.43,SW,225,0.0,0.0,73,0.00,,,0.00,open2300-1.11,2013-02-07 01:47:00,
2013-02-07 03:52:00,52.7,44.3,28.43,SW,225,0.0,0.0,73,0.00,,,0.00,open2300-1.11,2013-02-07 01:52:00,
2013-02-07 03:57:00,52.7,44.7,28.42,SW,225,0.0,0.0,74,0.00,,,0.00,open2300-1.11,2013-02-07 01:57:00,
2013-02-07 04:07:00,52.5,44.1,28.42,WSW,247,0.0,0.0,73,0.00,,,0.00,open2300-1.11,2013-02-07 02:07:00,
2013-02-07 04:12:00,52.7,44.0,28.43,SW,225,0.0,0.0,72,0.00,,,0.00,open2300-1.11,2013-02-07 02:12:00,
2013-02-07 04:17:00,52.7,44.0,28.42,SW,225,0.0,0.0,72,0.00,,,0.00,open2300-1.11,2013-02-07 02:17:00,
2013-02-07 04:23:00,52.7,44.0,28.42,SW,225,0.0,0.0,72,0.00,,,0.00,open2300-1.11,2013-02-07 02:23:00,
2013-02-07 04:32:00,52.7,44.0,28.42,SSW,202,0.0,0.0,72,0.00,,,0.00,open2300-1.11,2013-02-07 02:32:00,
2013-02-07 04:37:00,52.7,44.0,28.42,SSW,202,0.0,0.0,72,0.00,,,0.00,open2300-1.11,2013-02-07 02:37:00,
2013-02-07 04:42:00,52.5,44.1,28.41,SW,225,0.0,0.0,73,0.00,,,0.00,open2300-1.11,2013-02-07 02:42:00,
2013-02-07 04:52:00,52.5,44.1,28.41,SSW,202,0.0,0.0,73,0.00,,,0.00,open2300-1.11,2013-02-07 02:52:00,
2013-02-07 05:02:00,52.7,45.0,28.41,SSW,202,0.0,0.0,75,0.00,,,0.00,open2300-1.11,2013-02-07 03:02:00,
2013-02-07 05:07:00,52.7,45.0,28.41,SSW,202,0.0,0.0,75,0.00,,,0.00,open2300-1.11,2013-02-07 03:07:00,
2013-02-07 05:12:00,52.7,45.0,28.41,SW,225,0.0,0.0,75,0.00,,,0.00,open2300-1.11,2013-02-07 03:12:00,
2013-02-07 05:17:00,52.7,45.4,28.41,SW,225,0.0,0.0,76,0.00,,,0.00,open2300-1.11,2013-02-07 03:17:00,
2013-02-07 05:23:00,52.7,45.4,28.41,SW,225,0.0,0.0,76,0.00,,,0.00,open2300-1.11,2013-02-07 03:23:00,
2013-02-07 05:32:00,52.9,45.5,28.41,WSW,247,0.0,0.0,76,0.00,,,0.00,open2300-1.11,2013-02-07 03:32:00,
2013-02-07 05:37:00,52.9,45.5,28.41,SW,225,0.0,0.0,76,0.00,,,0.00,open2300-1.11,2013-02-07 03:37:00,
2013-02-07 05:42:00,52.9,45.9,28.41,South,180,0.0,0.0,77,0.00,,,0.00,open2300-1.11,2013-02-07 03:42:00,
2013-02-07 05:52:00,52.9,45.9,28.41,SW,225,0.0,0.0,77,0.00,,,0.00,open2300-1.11,2013-02-07 03:52:00,
2013-02-07 05:57:00,52.9,45.9,28.41,WSW,247,0.0,0.0,77,0.00,,,0.00,open2300-1.11,2013-02-07 03:57:00,
2013-02-07 06:02:00,53.1,46.0,28.41,SW,225,0.0,0.0,77,0.00,,,0.00,open2300-1.11,2013-02-07 04:02:00,
2013-02-07 06:07:00,53.2,46.6,28.41,South,180,0.0,0.0,78,0.00,,,0.00,open2300-1.11,2013-02-07 04:07:00,
2013-02-07 06:13:00,53.2,46.6,28.41,South,180,0.0,0.0,78,0.00,,,0.00,open2300-1.11,2013-02-07 04:13:00,
2013-02-07 06:22:00,53.4,46.8,28.41,South,180,0.0,4.5,78,0.00,,,0.00,open2300-1.11,2013-02-07 04:22:00,
2013-02-07 06:27:00,53.4,46.8,28.41,SSW,202,0.0,0.0,78,0.00,,,0.00,open2300-1.11,2013-02-07 04:27:00,
2013-02-07 06:32:00,53.4,46.8,28.41,SW,225,0.0,0.0,78,0.00,,,0.00,open2300-1.11,2013-02-07 04:32:00,
2013-02-07 06:37:00,53.4,46.8,28.40,SSW,202,0.0,0.0,78,0.00,,,0.00,open2300-1.11,2013-02-07 04:37:00,
2013-02-07 06:47:00,53.4,47.1,28.40,West,270,0.0,0.0,79,0.00,,,0.00,open2300-1.11,2013-02-07 04:47:00,
2013-02-07 06:52:00,53.4,47.1,28.40,West,270,0.0,0.0,79,0.00,,,0.00,open2300-1.11,2013-02-07 04:52:00,
2013-02-07 06:59:00,53.4,47.1,28.41,SSW,202,0.0,0.0,79,0.00,,,0.00,open2300-1.11,2013-02-07 04:59:00,
2013-02-07 07:02:00,53.4,47.1,28.41,SSW,202,0.0,2.9,79,0.00,,,0.00,open2300-1.11,2013-02-07 05:02:00,
2013-02-07 07:07:00,53.6,47.3,28.40,WSW,247,0.0,0.0,79,0.00,,,0.00,open2300-1.11,2013-02-07 05:07:00,
2013-02-07 07:12:00,53.8,47.5,28.41,SSW,202,0.0,8.3,79,0.00,,,0.00,open2300-1.11,2013-02-07 05:12:00,
2013-02-07 07:17:00,53.8,47.1,28.40,WSW,247,0.0,0.0,78,0.00,,,0.00,open2300-1.11,2013-02-07 05:17:00,
2013-02-07 07:22:00,53.8,47.1,28.39,SSW,202,0.0,0.0,78,0.00,,,0.00,open2300-1.11,2013-02-07 05:22:00,
2013-02-07 07:27:00,53.8,47.1,28.39,SW,225,0.0,0.0,78,0.00,,,0.00,open2300-1.11,2013-02-07 05:27:00,
2013-02-07 07:32:00,53.8,47.1,28.39,SSW,202,5.4,5.4,78,0.00,,,0.00,open2300-1.11,2013-02-07 05:32:00,
2013-02-07 07:42:00,53.8,47.1,28.39,SW,225,3.8,3.8,78,0.00,,,0.00,open2300-1.11,2013-02-07 05:42:00,
2013-02-07 07:47:00,53.8,47.1,28.39,WSW,247,0.0,3.8,78,0.00,,,0.00,open2300-1.11,2013-02-07 05:47:00,
2013-02-07 07:57:00,54.0,47.3,28.39,SW,225,0.0,0.0,78,0.00,,,0.00,open2300-1.11,2013-02-07 05:57:00,
2013-02-07 08:07:00,54.1,47.1,28.39,SW,225,3.6,3.6,77,0.00,,,0.00,open2300-1.11,2013-02-07 06:07:00,
2013-02-07 08:12:00,54.1,47.1,28.39,WSW,247,0.0,3.6,77,0.00,,,0.00,open2300-1.11,2013-02-07 06:12:00,
2013-02-07 08:22:00,54.1,47.1,28.40,West,270,0.0,1.3,77,0.00,,,0.00,open2300-1.11,2013-02-07 06:22:00,
2013-02-07 08:27:00,54.1,47.1,28.39,WSW,247,0.0,0.0,77,0.00,,,0.00,open2300-1.11,2013-02-07 06:27:00,
2013-02-07 08:32:00,54.1,47.1,28.40,SSW,202,0.0,0.0,77,0.00,,,0.00,open2300-1.11,2013-02-07 06:32:00,
2013-02-07 08:37:00,54.3,47.2,28.40,SSW,202,1.6,1.6,77,0.00,,,0.00,open2300-1.11,2013-02-07 06:37:00,
2013-02-07 08:47:00,54.3,47.2,28.40,SW,225,0.0,0.0,77,0.00,,,0.00,open2300-1.11,2013-02-07 06:47:00,
2013-02-07 08:52:00,54.3,47.2,28.40,SW,225,0.0,0.0,77,0.00,,,0.00,open2300-1.11,2013-02-07 06:52:00,
2013-02-07 08:57:00,54.5,47.4,28.40,SW,225,0.0,2.2,77,0.00,,,0.00,open2300-1.11,2013-02-07 06:57:00,
2013-02-07 09:07:00,54.7,47.2,28.39,South,180,3.4,3.4,76,0.00,,,0.00,open2300-1.11,2013-02-07 07:07:00,
2013-02-07 09:12:00,54.7,47.2,28.39,SE,135,0.0,3.4,76,0.00,,,0.00,open2300-1.11,2013-02-07 07:12:00,
2013-02-07 09:17:00,54.9,47.4,28.40,ESE,112,0.0,0.0,76,0.00,,,0.00,open2300-1.11,2013-02-07 07:17:00,
2013-02-07 09:25:00,55.0,47.6,28.39,South,180,2.5,2.5,76,0.00,,,0.00,open2300-1.11,2013-02-07 07:25:00,
2013-02-07 09:32:00,55.0,47.6,28.39,South,180,0.0,0.0,76,0.00,,,0.00,open2300-1.11,2013-02-07 07:32:00,
2013-02-07 09:37:00,55.2,47.7,28.39,SSW,202,0.0,2.0,76,0.00,,,0.00,open2300-1.11,2013-02-07 07:37:00,
2013-02-07 09:42:00,55.4,47.9,28.40,SSW,202,3.4,3.4,76,0.00,,,0.00,open2300-1.11,2013-02-07 07:42:00,
2013-02-07 09:47:00,55.4,47.9,28.40,SSE,157,0.0,3.4,76,0.00,,,0.00,open2300-1.11,2013-02-07 07:47:00,
2013-02-07 09:57:00,55.6,47.7,28.40,South,180,1.3,2.5,75,0.00,,,0.00,open2300-1.11,2013-02-07 07:57:00,
2013-02-07 10:07:00,55.8,47.2,28.39,SW,225,6.5,6.5,73,0.00,,,0.00,open2300-1.11,2013-02-07 08:07:00,
2013-02-07 10:12:00,55.9,47.4,28.39,South,180,0.0,6.5,73,0.00,,,0.00,open2300-1.11,2013-02-07 08:12:00,
2013-02-07 10:17:00,55.9,47.0,28.39,WSW,247,0.0,0.7,72,0.00,,,0.00,open2300-1.11,2013-02-07 08:17:00,
2013-02-07 10:27:00,56.1,47.2,28.39,South,180,0.0,2.2,72,0.00,,,0.00,open2300-1.11,2013-02-07 08:27:00,
2013-02-07 10:32:00,56.1,47.5,28.39,SSW,202,0.0,0.0,73,0.00,,,0.00,open2300-1.11,2013-02-07 08:32:00,
2013-02-07 10:37:00,56.3,47.4,28.39,South,180,0.0,3.8,72,0.00,,,0.00,open2300-1.11,2013-02-07 08:37:00,
2013-02-07 10:42:00,56.5,47.2,28.38,SE,135,4.7,4.7,71,0.00,,,0.00,open2300-1.11,2013-02-07 08:42:00,
2013-02-07 10:52:00,56.8,47.5,28.39,ESE,112,0.7,5.6,71,0.00,,,0.00,open2300-1.11,2013-02-07 08:52:00,
2013-02-07 10:57:00,56.8,47.5,28.40,SE,135,0.0,0.7,71,0.00,,,0.00,open2300-1.11,2013-02-07 08:57:00,
2013-02-07 11:02:00,57.0,47.7,28.40,South,180,4.7,4.7,71,0.00,,,0.00,open2300-1.11,2013-02-07 09:02:00,
2013-02-07 11:08:00,57.0,47.7,28.40,South,180,3.1,4.7,71,0.00,,,0.00,open2300-1.11,2013-02-07 09:08:00,
2013-02-07 11:17:00,57.4,48.0,28.40,SSE,157,0.0,0.0,71,0.00,,,0.00,open2300-1.11,2013-02-07 09:17:00,
2013-02-07 11:22:00,57.4,48.4,28.40,NNE,22,1.8,1.8,72,0.00,,,0.00,open2300-1.11,2013-02-07 09:22:00,
2013-02-07 11:27:00,57.4,48.4,28.40,South,180,0.0,1.8,72,0.00,,,0.00,open2300-1.11,2013-02-07 09:27:00,
2013-02-07 11:32:00,57.0,48.0,28.40,SE,135,0.0,0.0,72,0.00,,,0.00,open2300-1.11,2013-02-07 09:32:00,
2013-02-07 11:37:00,57.2,47.8,28.40,South,180,0.0,0.0,71,0.00,,,0.00,open2300-1.11,2013-02-07 09:37:00,
2013-02-07 11:47:00,57.4,48.0,28.40,SW,225,4.0,4.0,71,0.00,,,0.00,open2300-1.11,2013-02-07 09:47:00,
2013-02-07 11:52:00,57.4,47.7,28.40,ESE,112,1.6,4.0,70,0.00,,,0.00,open2300-1.11,2013-02-07 09:52:00,
2013-02-07 11:57:00,57.4,47.7,28.40,South,180,0.0,1.6,70,0.00,,,0.00,open2300-1.11,2013-02-07 09:57:00,
2013-02-07 12:08:00,57.4,47.7,28.39,SSW,202,0.0,0.0,70,0.00,,,0.00,open2300-1.11,2013-02-07 10:08:00,
2013-02-07 12:17:00,57.6,47.4,28.38,SW,225,0.0,0.0,69,0.00,,,0.00,open2300-1.11,2013-02-07 10:17:00,
2013-02-07 12:22:00,57.4,47.2,28.37,South,180,3.8,3.8,69,0.00,,,0.00,open2300-1.11,2013-02-07 10:22:00,
2013-02-07 12:32:00,57.6,47.4,28.37,SSE,157,0.0,0.0,69,0.00,,,0.00,open2300-1.11,2013-02-07 10:32:00,
2013-02-07 12:37:00,57.7,47.6,28.37,South,180,0.0,4.5,69,0.00,,,0.00,open2300-1.11,2013-02-07 10:37:00,
2013-02-07 12:47:00,57.7,47.6,28.37,South,180,0.0,2.9,69,0.00,,,0.00,open2300-1.11,2013-02-07 10:47:00,
2013-02-07 12:52:00,57.6,47.4,28.36,South,180,0.0,3.6,69,0.00,,,0.00,open2300-1.11,2013-02-07 10:52:00,
2013-02-07 13:02:00,57.4,47.2,28.36,SE,135,0.0,0.0,69,0.00,,,0.00,open2300-1.11,2013-02-07 11:02:00,
2013-02-07 13:08:00,57.4,47.2,28.36,SSE,157,0.0,0.0,69,0.00,,,0.00,open2300-1.11,2013-02-07 11:08:00,
2013-02-07 13:17:00,57.0,47.3,28.36,SSW,202,0.0,0.0,70,0.00,,,0.00,open2300-1.11,2013-02-07 11:17:00,
2013-02-07 13:22:00,57.0,47.3,28.35,SSE,157,0.0,0.0,70,0.00,,,0.00,open2300-1.11,2013-02-07 11:22:00,
2013-02-07 13:27:00,57.0,47.3,28.35,SSW,202,0.0,0.0,70,0.00,,,0.00,open2300-1.11,2013-02-07 11:27:00,
2013-02-07 13:32:00,57.0,47.3,28.35,South,180,0.0,0.0,70,0.00,,,0.00,open2300-1.11,2013-02-07 11:32:00,
2013-02-07 13:37:00,57.0,47.7,28.34,South,180,0.0,0.0,71,0.00,,,0.00,open2300-1.11,2013-02-07 11:37:00,
2013-02-07 13:47:00,57.0,47.7,28.33,SSW,202,0.0,0.0,71,0.00,,,0.00,open2300-1.11,2013-02-07 11:47:00,
2013-02-07 13:52:00,57.0,47.3,28.32,SSE,157,0.0,3.6,70,0.00,,,0.00,open2300-1.11,2013-02-07 11:52:00,
2013-02-07 13:57:00,57.4,47.7,28.31,SSW,202,0.0,0.0,70,0.00,,,0.00,open2300-1.11,2013-02-07 11:57:00,
2013-02-07 14:03:00,57.6,47.8,28.31,East,90,1.6,5.1,70,0.00,,,0.00,open2300-1.11,2013-02-07 12:03:00,
2013-02-07 14:12:00,58.1,48.4,28.31,SE,135,2.9,2.9,70,0.00,,,0.00,open2300-1.11,2013-02-07 12:12:00,
2013-02-07 14:17:00,58.3,48.2,28.31,ESE,112,0.0,4.0,69,0.00,,,0.00,open2300-1.11,2013-02-07 12:17:00,
2013-02-07 14:27:00,57.9,48.2,28.31,SW,225,2.9,2.9,70,0.00,,,0.00,open2300-1.11,2013-02-07 12:27:00,
2013-02-07 14:37:00,57.6,47.8,28.31,SSE,157,4.9,4.9,70,0.00,,,0.00,open2300-1.11,2013-02-07 12:37:00,
2013-02-07 14:42:00,57.4,47.7,28.31,South,180,0.0,5.1,70,0.00,,,0.00,open2300-1.11,2013-02-07 12:42:00,
2013-02-07 14:47:00,57.2,47.8,28.31,South,180,0.0,0.0,71,0.00,,,0.00,open2300-1.11,2013-02-07 12:47:00,
2013-02-07 14:52:00,57.0,47.3,28.30,South,180,2.7,3.8,70,0.00,,,0.00,open2300-1.11,2013-02-07 12:52:00,
2013-02-07 14:58:00,56.8,47.5,28.29,SSE,157,0.0,2.7,71,0.00,,,0.00,open2300-1.11,2013-02-07 12:58:00,
2013-02-07 15:07:00,56.8,47.5,28.29,South,180,0.0,0.0,71,0.00,,,0.00,open2300-1.11,2013-02-07 13:07:00,
2013-02-07 15:12:00,56.8,47.5,28.29,East,90,2.7,3.6,71,0.00,,,0.00,open2300-1.11,2013-02-07 13:12:00,
2013-02-07 15:17:00,56.8,47.5,28.29,ESE,112,0.0,2.7,71,0.00,,,0.00,open2300-1.11,2013-02-07 13:17:00,
2013-02-07 15:22:00,56.8,47.5,28.28,SSW,202,0.0,0.0,71,0.00,,,0.00,open2300-1.11,2013-02-07 13:22:00,
2013-02-07 15:32:00,56.8,47.5,28.28,West,270,1.1,3.1,71,0.00,,,0.00,open2300-1.11,2013-02-07 13:32:00,
2013-02-07 15:37:00,56.8,47.5,28.28,South,180,0.0,1.1,71,0.00,,,0.00,open2300-1.11,2013-02-07 13:37:00,
2013-02-07 15:42:00,56.8,47.5,28.27,NE,45,0.0,2.7,71,0.00,,,0.00,open2300-1.11,2013-02-07 13:42:00,
2013-02-07 15:47:00,56.8,47.5,28.27,ESE,112,0.0,1.8,71,0.00,,,0.00,open2300-1.11,2013-02-07 13:47:00,
2013-02-07 15:57:00,56.8,47.9,28.27,South,180,0.0,0.0,72,0.00,,,0.00,open2300-1.11,2013-02-07 13:57:00,
2013-02-07 16:02:00,56.8,48.2,28.28,SSW,202,0.0,0.0,73,0.00,,,0.00,open2300-1.11,2013-02-07 14:02:00,
2013-02-07 16:07:00,56.7,48.1,28.27,SE,135,0.0,2.2,73,0.00,,,0.00,open2300-1.11,2013-02-07 14:07:00,
2013-02-07 16:12:00,56.5,47.9,28.27,East,90,0.0,0.0,73,0.00,,,0.00,open2300-1.11,2013-02-07 14:12:00,
2013-02-07 16:22:00,56.3,48.1,28.28,SSE,157,0.0,0.0,74,0.00,,,0.00,open2300-1.11,2013-02-07 14:22:00,
2013-02-07 16:27:00,56.5,48.6,28.28,SE,135,6.3,6.3,75,0.00,,,0.00,open2300-1.11,2013-02-07 14:27:00,
2013-02-07 16:32:00,56.3,48.4,28.29,SSE,157,0.0,6.3,75,0.00,,,0.00,open2300-1.11,2013-02-07 14:32:00,
2013-02-07 16:37:00,56.1,48.6,28.28,ESE,112,1.3,1.3,76,0.00,,,0.00,open2300-1.11,2013-02-07 14:37:00,
2013-02-07 16:43:00,55.9,48.8,28.28,ESE,112,0.0,3.6,77,0.00,,,0.00,open2300-1.11,2013-02-07 14:43:00,
2013-02-07 16:52:00,55.0,47.6,28.31,SW,225,6.0,6.0,76,0.00,,,0.00,open2300-1.11,2013-02-07 14:52:00,
2013-02-07 16:57:00,53.4,46.4,28.33,South,180,0.0,6.9,77,0.02,,,0.02,open2300-1.11,2013-02-07 14:57:00,
2013-02-07 17:02:00,52.3,46.0,28.31,SSW,202,6.7,6.7,79,0.06,,,0.06,open2300-1.11,2013-02-07 15:02:00,
2013-02-07 17:07:00,51.3,45.6,28.31,SW,225,1.1,6.7,81,0.08,,,0.08,open2300-1.11,2013-02-07 15:07:00,
2013-02-07 17:17:00,50.4,45.3,28.30,SW,225,1.8,3.6,83,0.08,,,0.08,open2300-1.11,2013-02-07 15:17:00,
2013-02-07 17:27:00,50.2,45.8,28.29,SW,225,1.6,1.6,85,0.08,,,0.08,open2300-1.11,2013-02-07 15:27:00,
2013-02-07 17:32:00,49.8,45.4,28.29,ESE,112,0.0,1.6,85,0.08,,,0.08,open2300-1.11,2013-02-07 15:32:00,
2013-02-07 17:42:00,49.8,45.4,28.29,South,180,0.0,0.0,85,0.08,,,0.08,open2300-1.11,2013-02-07 15:42:00,
2013-02-07 17:47:00,49.8,45.4,28.29,SSE,157,0.0,0.0,85,0.08,,,0.08,open2300-1.11,2013-02-07 15:47:00,
2013-02-07 17:52:00,50.0,45.6,28.29,SE,135,0.0,0.0,85,0.08,,,0.08,open2300-1.11,2013-02-07 15:52:00,
2013-02-07 17:57:00,50.2,45.8,28.29,SE,135,0.0,0.0,85,0.06,,,0.08,open2300-1.11,2013-02-07 15:57:00,
2013-02-07 18:07:00,50.5,46.1,28.29,South,180,0.0,0.0,85,0.00,,,0.08,open2300-1.11,2013-02-07 16:07:00,
2013-02-07 18:12:00,50.7,46.3,28.29,SSW,202,0.0,0.0,85,0.00,,,0.08,open2300-1.11,2013-02-07 16:12:00,
2013-02-07 18:22:00,50.7,46.0,28.30,SSW,202,0.0,0.0,84,0.00,,,0.08,open2300-1.11,2013-02-07 16:22:00,
2013-02-07 18:27:00,50.9,46.2,28.30,South,180,0.0,0.0,84,0.00,,,0.08,open2300-1.11,2013-02-07 16:27:00,
2013-02-07 18:37:00,50.9,45.6,28.29,SSW,202,0.0,1.8,82,0.00,,,0.08,open2300-1.11,2013-02-07 16:37:00,
2013-02-07 18:42:00,51.1,45.8,28.29,South,180,0.0,0.0,82,0.00,,,0.08,open2300-1.11,2013-02-07 16:42:00,
2013-02-07 18:47:00,51.1,45.8,28.29,SSW,202,0.0,0.0,82,0.00,,,0.08,open2300-1.11,2013-02-07 16:47:00,
2013-02-07 18:52:00,51.3,45.9,28.29,South,180,0.0,0.0,82,0.00,,,0.08,open2300-1.11,2013-02-07 16:52:00,
2013-02-07 19:02:00,51.4,45.8,28.29,SSW,202,0.0,0.0,81,0.00,,,0.08,open2300-1.11,2013-02-07 17:02:00,
2013-02-07 19:07:00,51.4,45.5,28.29,South,180,2.9,2.9,80,0.00,,,0.08,open2300-1.11,2013-02-07 17:07:00,
2013-02-07 19:12:00,51.4,45.5,28.30,SSE,157,0.0,2.9,80,0.00,,,0.08,open2300-1.11,2013-02-07 17:12:00,
2013-02-07 19:17:00,51.6,45.7,28.29,SSE,157,0.0,0.0,80,0.00,,,0.08,open2300-1.11,2013-02-07 17:17:00,
2013-02-07 19:27:00,51.6,45.7,28.29,South,180,0.0,0.0,80,0.00,,,0.08,open2300-1.11,2013-02-07 17:27:00,
2013-02-07 19:32:00,51.6,46.0,28.29,WSW,247,0.0,0.0,81,0.00,,,0.08,open2300-1.11,2013-02-07 17:32:00,
2013-02-07 19:37:00,51.6,46.0,28.29,South,180,0.0,0.0,81,0.00,,,0.08,open2300-1.11,2013-02-07 17:37:00,
2013-02-07 19:42:00,51.6,46.3,28.29,WSW,247,4.5,4.5,82,0.00,,,0.08,open2300-1.11,2013-02-07 17:42:00,
2013-02-07 19:47:00,51.4,46.4,28.30,South,180,0.0,4.5,83,0.00,,,0.08,open2300-1.11,2013-02-07 17:47:00,
2013-02-07 19:57:00,51.1,46.7,28.31,SW,225,0.0,0.0,85,0.00,,,0.08,open2300-1.11,2013-02-07 17:57:00,
2013-02-07 20:02:00,50.9,46.5,28.31,WSW,247,0.0,0.0,85,0.02,,,0.10,open2300-1.11,2013-02-07 18:02:00,
2013-02-07 20:07:00,50.4,46.3,28.31,SSW,202,0.0,0.0,86,0.06,,,0.14,open2300-1.11,2013-02-07 18:07:00,
2013-02-07 20:13:00,50.2,46.1,28.30,SSE,157,0.0,0.0,86,0.06,,,0.14,open2300-1.11,2013-02-07 18:13:00,
2013-02-07 20:22:00,49.6,45.9,28.30,SW,225,0.0,0.0,87,0.06,,,0.14,open2300-1.11,2013-02-07 18:22:00,
2013-02-07 20:27:00,49.5,45.7,28.29,SW,225,0.0,0.0,87,0.06,,,0.14,open2300-1.11,2013-02-07 18:27:00,
2013-02-07 20:32:00,49.3,45.5,28.28,SW,225,0.0,0.0,87,0.06,,,0.14,open2300-1.11,2013-02-07 18:32:00,
2013-02-07 20:37:00,49.1,45.4,28.30,SW,225,0.0,0.0,87,0.06,,,0.14,open2300-1.11,2013-02-07 18:37:00,
2013-02-07 20:42:00,49.1,45.4,28.29,SW,225,0.0,0.0,87,0.06,,,0.14,open2300-1.11,2013-02-07 18:42:00,
2013-02-07 20:52:00,49.1,45.4,28.30,SW,225,0.0,0.0,87,0.06,,,0.14,open2300-1.11,2013-02-07 18:52:00,
2013-02-07 20:57:00,48.9,45.5,28.30,SSW,202,0.0,0.0,88,0.06,,,0.14,open2300-1.11,2013-02-07 18:57:00,
2013-02-07 21:07:00,49.3,45.8,28.30,SSW,202,0.0,0.0,88,0.00,,,0.14,open2300-1.11,2013-02-07 19:07:00,
2013-02-07 21:12:00,49.3,45.8,28.30,SSW,202,0.0,0.0,88,0.00,,,0.14,open2300-1.11,2013-02-07 19:12:00,
2013-02-07 21:22:00,49.5,45.7,28.30,SSE,157,0.0,0.0,87,0.00,,,0.14,open2300-1.11,2013-02-07 19:22:00,
2013-02-07 21:27:00,49.6,45.9,28.30,South,180,0.0,0.0,87,0.00,,,0.14,open2300-1.11,2013-02-07 19:27:00,
2013-02-07 21:32:00,49.6,45.5,28.30,SSW,202,0.0,0.0,86,0.00,,,0.14,open2300-1.11,2013-02-07 19:32:00,
2013-02-07 21:37:00,49.6,45.5,28.30,WSW,247,0.0,0.0,86,0.00,,,0.14,open2300-1.11,2013-02-07 19:37:00,
2013-02-07 21:42:00,49.6,45.2,28.30,SE,135,0.0,0.0,85,0.00,,,0.14,open2300-1.11,2013-02-07 19:42:00,
2013-02-07 21:52:00,49.8,45.1,28.29,SSE,157,0.0,0.0,84,0.00,,,0.14,open2300-1.11,2013-02-07 19:52:00,
2013-02-07 21:57:00,49.8,45.1,28.30,East,90,0.0,0.0,84,0.00,,,0.14,open2300-1.11,2013-02-07 19:57:00,
2013-02-07 22:02:00,49.8,44.8,28.30,SSW,202,0.0,0.0,83,0.00,,,0.14,open2300-1.11,2013-02-07 20:02:00,
2013-02-07 22:08:00,49.8,44.5,28.31,SSW,202,0.0,0.0,82,0.00,,,0.14,open2300-1.11,2013-02-07 20:08:00,
2013-02-07 22:17:00,49.8,44.5,28.31,WSW,247,0.0,0.0,82,0.00,,,0.14,open2300-1.11,2013-02-07 20:17:00,
2013-02-07 22:22:00,49.8,44.5,28.31,SW,225,0.0,0.0,82,0.00,,,0.14,open2300-1.11,2013-02-07 20:22:00,
2013-02-07 22:27:00,49.8,44.5,28.31,SW,225,0.0,0.0,82,0.00,,,0.14,open2300-1.11,2013-02-07 20:27:00,
2013-02-07 22:37:00,50.2,44.8,28.31,SW,225,0.0,0.0,82,0.00,,,0.14,open2300-1.11,2013-02-07 20:37:00,
2013-02-07 22:47:00,50.2,44.8,28.31,SW,225,0.0,0.0,82,0.00,,,0.14,open2300-1.11,2013-02-07 20:47:00,
2013-02-07 22:57:00,50.2,44.8,28.31,SW,225,0.0,0.0,82,0.00,,,0.14,open2300-1.11,2013-02-07 20:57:00,
2013-02-07 23:02:00,50.2,44.8,28.30,SW,225,0.0,0.0,82,0.00,,,0.14,open2300-1.11,2013-02-07 21:02:00,
2013-02-07 23:09:00,50.2,44.8,28.31,SW,225,0.0,0.0,82,0.00,,,0.14,open2300-1.11,2013-02-07 21:09:00,
2013-02-07 23:17:00,50.4,45.0,28.32,SW,225,0.0,0.0,82,0.00,,,0.14,open2300-1.11,2013-02-07 21:17:00,
2013-02-07 23:22:00,50.4,45.0,28.32,SW,225,0.0,0.0,82,0.00,,,0.14,open2300-1.11,2013-02-07 21:22:00,
2013-02-07 23:27:00,50.4,45.0,28.31,SW,225,0.0,0.0,82,0.00,,,0.14,open2300-1.11,2013-02-07 21:27:00,
2013-02-07 23:32:00,50.5,45.2,28.31,SW,225,0.0,0.0,82,0.00,,,0.14,open2300-1.11,2013-02-07 21:32:00,
2013-02-07 23:37:00,50.5,45.2,28.31,SW,225,0.0,0.0,82,0.00,,,0.14,open2300-1.11,2013-02-07 21:37:00,
2013-02-07 23:47:00,50.5,45.2,28.31,SW,225,0.0,0.0,82,0.00,,,0.14,open2300-1.11,2013-02-07 21:47:00,
2013-02-07 23:52:00,50.7,45.4,28.31,SW,225,0.0,0.0,82,0.00,,,0.14,open2300-1.11,2013-02-07 21:52:00,
2013-02-07 23:57:00,50.5,45.2,28.31,SW,225,0.0,0.0,82,0.00,,,0.14,open2300-1.11,2013-02-07 21:57:00,